Regional Weather Roundup
Issued by NWS Grand Forks, ND

Home | Current Version | Previous Version | Text Only | Print | Product List | Glossary On
Versions: 1 2 3 4 5 6 7 8 9 10 11 12 13 14 15 16 17 18 19 20 21 22 23 24 25 26 27 28 29 30 31 32 33 34 35 36 37 38 39 40 41 42 43 44 45 46 47 48 49 50
000
ASUS43 KFGF 230631
RWRFGF
PRAIRIE TO PINES  WEATHER ROUNDUP
NATIONAL WEATHER SERVICE EASTERN NORTH DAKOTA/GRAND FORKS ND
100 AM CDT TUE MAY 23 2017

 **SATELLITE DATA USED TO AUGMENT SKY COVER AT AUTOMATED STATIONS**
 *****  WEATHER ACROSS EASTERN NORTH DAKOTA  *****

CITY           SKY/WX    TMP DP  RH WIND       PRES   REMARKS
GRAND FORKS    CLOUDY    49  47  93 N13       29.94R
6HR MIN TEMP:  49; 6HR MAX TEMP:  52; 6HR PCP: TRACE;

GRAND FRKS AFB CLOUDY    48  45  90 N16       29.95S
DEVILS LAKE    CLOUDY    48  41  76 N16       30.02S
6HR MIN TEMP:  48; 6HR MAX TEMP:  50; 6HR PCP: TRACE;

FARGO          CLOUDY    49  47  93 N13       29.91R
WAHPETON ARPT  CLOUDY    46  43  87 N9        29.90S
$$

 ***** WEATHER ACROSS CENTRAL AND WESTERN NORTH DAKOTA  *****

CITY           SKY/WX    TMP DP  RH WIND       PRES   REMARKS
BISMARCK       CLOUDY    52  39  61 N7        30.08R
6HR MIN TEMP:  52; 6HR MAX TEMP:  62; 6HR PCP: TRACE;

MINOT          CLOUDY    49  38  65 NW7       30.09S
6HR MIN TEMP:  47; 6HR MAX TEMP:  63;

JAMESTOWN      CLOUDY    47  44  90 N16       29.97S
6HR MIN TEMP:  47; 6HR MAX TEMP:  51; 6HR PCP:  0.01;

MINOT AFB      FAIR      41  35  77 NW7       30.09S
GARRISON         N/A     47  38  71 NW7       30.10R
WILLISTON      FAIR      50  35  56 E3        30.15R
6HR MIN TEMP:  46; 6HR MAX TEMP:  67;

DICKINSON      CLOUDY    49  34  56 NE8       30.11R
6HR MIN TEMP:  49; 6HR MAX TEMP:  58;

HETTINGER      CLOUDY    51  36  56 N9        30.12R
6HR MIN TEMP:  50; 6HR MAX TEMP:  59;

$$

 *****  OTHER AIRPORT OBSERVATIONS IN OUR AREA  *****

CITY           SKY/WX    TMP DP  RH WIND       PRES   REMARKS
WALHALLA       NOT AVBL
GRAFTON AIRPOR MOCLDY    48  46  93 N16       29.98S
VALLEY CITY AR NOT AVBL
CANDO          NOT AVBL
CAVALIER APRT  CLOUDY    48  45  87 N13G18    29.99S
GWINNER        CLOUDY    48  45  87 MISG      29.93S
SHEYENNE NWR     N/A     48  46  91 N7        29.95S
ROLLA          CLOUDY    48  41  76 N17       30.07S
 ***** THE ABOVE OBSERVATIONS ARE NON NWS ARE NOT QUALITY
       CONTROLLED AND MAY MIS-REPORT RAIN FOR SNOW...
$$

  *****  WEATHER ACROSS NORTHERN MINNESOTA  *****

CITY           SKY/WX    TMP DP  RH WIND       PRES   REMARKS
FLAG ISLAND    CLOUDY    46  45  93 NE18      29.92R
WARROAD        CLOUDY    48  45  87 N12       29.92S
ROSEAU         CLOUDY    46  43  87 N10       29.92S
HALLOCK        CLOUDY    48  45  87 N13       29.96S
THF RVR FALLS  LGT RAIN  46  45  93 N13       29.92S
6HR MIN TEMP:  47; 6HR MAX TEMP:  49; 6HR PCP:  0.01;

BAUDETTE       CLOUDY    47  46  97 N9        29.88R
6HR MIN TEMP:  47; 6HR MAX TEMP:  49; 6HR PCP:  0.02;

WASKISH        CLOUDY    46  45  93 N5        29.86F
CROOKSTON      DRIZZLE   48  46  93 N10       29.93S
STEPHEN NDAWN    N/A     48  45  87 N13         N/A
GREENBUSH NDAW   N/A     46  45  93 N12         N/A
$$
  *****  WEATHER ACROSS CENTRAL AND WEST MINNESOTA  *****

CITY           SKY/WX    TMP DP  RH WIND       PRES   REMARKS
FOSSTON        DRIZZLE   45  43  93 N10       29.89S
BEMIDJI        DRIZZLE   45  45  99 N6        29.86S
PARK RAPIDS    CLOUDY    46  42  86 NW6       29.85S
6HR MIN TEMP:  45; 6HR MAX TEMP:  50; 6HR PCP:  0.01;

ELBOW LAKE     CLOUDY    46  45  97 W9        29.88F
6HR MIN TEMP:  46; 6HR MAX TEMP:  52;

WADENA         LGT RAIN  45  43  93 NW5       29.86S
DETROIT LAKES  DRIZZLE   45  45 100 N8        29.89S
MOORHEAD       DRIZZLE   46  45  93 N10       29.91S
FERGUS FALLS   CLOUDY    46  46 100 N9        29.88S
MORRIS MN      CLOUDY    48  46  93 NW9       29.87F
STAPLES        DRIZZLE   45  43  93 NW3       29.86S
$$
  *****  WEATHER ELSEWHERE ACROSS MINNESOTA  *****

CITY           SKY/WX    TMP DP  RH WIND       PRES   REMARKS
DULUTH         CLOUDY    48  45  89 N5        29.82S
6HR MIN TEMP:  48; 6HR MAX TEMP:  53;

INTRNTL FALLS  LGT RAIN  48  46  93 N8        29.84S FOG
6HR MIN TEMP:  47; 6HR MAX TEMP:  50; 6HR PCP: TRACE;

ELY            FAIR      36  36 100 CALM      29.83S
CLOQUET        CLOUDY    46  43  87 NW3       29.83S
WHEATON        CLOUDY    48  45  87 NW6       29.91F
BRAINERD       CLOUDY    46  44  93 N6        29.85S
6HR MIN TEMP:  46; 6HR MAX TEMP:  51; 6HR PCP: TRACE;

HIBBING        FOG       35  35 100 NW3       29.83S VSB 3/4
6HR MIN TEMP:  37; 6HR MAX TEMP:  49; 6HR PCP: TRACE;

ALEXANDRIA     CLOUDY    45  44  97 NW5       29.88S
6HR MIN TEMP:  45; 6HR MAX TEMP:  54; 6HR PCP:  0.02;

SAINT CLOUD    CLOUDY    45  43  93 NW6       29.84S
6HR MIN TEMP:  45; 6HR MAX TEMP:  58;

MINNEAPOLIS    LGT RAIN  54  45  71 W3        29.83S
6HR MIN TEMP:  54; 6HR MAX TEMP:  64; 6HR PCP:  0.01;

$$

  *****  WEATHER ACROSS SOUTH DAKOTA  *****

CITY           SKY/WX    TMP DP  RH WIND       PRES   REMARKS
SIOUX FALLS    FAIR      50  44  80 NW17      29.92S
6HR MIN TEMP:  50; 6HR MAX TEMP:  54; 6HR PCP: TRACE;

BROOKINGS      LGT RAIN  46  43  89 NW9       29.93R
WATERTOWN      CLOUDY    47  43  86 NW16      29.90F
6HR MIN TEMP:  47; 6HR MAX TEMP:  56; 6HR PCP:  0.01;

HURON          CLOUDY    47  46  97 W7        29.97F
6HR MIN TEMP:  47; 6HR MAX TEMP:  57; 6HR PCP: TRACE;

SISSETON         N/A     47  46  97 N12       29.90S
ABERDEEN       CLOUDY    48  43  82 N12       29.97S
6HR MIN TEMP:  48; 6HR MAX TEMP:  57; 6HR PCP:  0.01;

MITCHELL       LGT RAIN  49  45  86 N8        29.99S
PIERRE         CLOUDY    51  41  68 SW6       29.99F
6HR MIN TEMP:  50; 6HR MAX TEMP:  60;

MOBRIDGE       CLOUDY    53  42  66 NE16      30.00R
RAPID CITY     MOCLDY    44  38  79 NW9       30.13S
6HR MIN TEMP:  43; 6HR MAX TEMP:  54; 6HR PCP:  0.03;

$$

  *****  SOME WEATHER IN NEARBY STATES *****

CITY           SKY/WX    TMP DP  RH WIND       PRES   REMARKS
GLASGOW MT     FAIR      45  33  63 NE7       30.18R
6HR MIN TEMP:  45; 6HR MAX TEMP:  68;

GREAT FALLS MT FAIR      53  39  59 E7        30.20S
6HR MIN TEMP:  53; 6HR MAX TEMP:  73;

CHEYENNE WY    FAIR      38  33  82 NW12      30.25S
6HR MIN TEMP:  38; 6HR MAX TEMP:  46; 6HR PCP: TRACE;

SCOTTSBLUFF NE CLOUDY    41  37  86 NW6       30.20R
6HR MIN TEMP:  38; 6HR MAX TEMP:  56; 6HR PCP: TRACE;

OMAHA NE       CLOUDY    56  47  71 N12       29.92R
6HR MIN TEMP:  56; 6HR MAX TEMP:  64;

DES MOINES IA  FAIR      55  53  93 NW6       29.84F
6HR MIN TEMP:  55; 6HR MAX TEMP:  68; 6HR PCP:  0.05;

DAVENPORT IA   FAIR      57  51  80 S10       29.84F
6HR MIN TEMP:  57; 6HR MAX TEMP:  63;

CHICAGO IL     CLOUDY    60  53  77 SW8G17    29.86F
6HR MIN TEMP:  60; 6HR MAX TEMP:  68; 6HR PCP:  0.01;

EAU CLAIRE WI  CLOUDY    51  47  86 N3        29.79F
6HR MIN TEMP:  51; 6HR MAX TEMP:  63;

LA CROSSE WI   FAIR      55  54  96 CALM      29.78F
6HR MIN TEMP:  55; 6HR MAX TEMP:  69; 6HR PCP:  0.25;

$$

  *****  SOME NATIONAL WEATHER *****

CITY           SKY/WX    TMP DP  RH WIND       PRES   REMARKS
LA GUARDIA NY  CLOUDY    60  57  89 NW14      29.94F
6HR MIN TEMP:  60; 6HR MAX TEMP:  63;

RALEIGH NC     LGT RAIN  68  67  96 CALM      29.93F
6HR MIN TEMP:  68; 6HR MAX TEMP:  75; 6HR PCP:  0.24;

ATLANTA GA     LGT RAIN  68  67  96 E5        29.91F FOG
6HR MIN TEMP:  68; 6HR MAX TEMP:  71; 6HR PCP:  0.63;

NEW ORLEANS LA MOCLDY    74  70  87 S14       29.82F
6HR MIN TEMP:  72; 6HR MAX TEMP:  76; 6HR PCP:  0.39;

OKLAHOMA CITY  CLOUDY    60  58  92 NW10      29.94S
6HR MIN TEMP:  58; 6HR MAX TEMP:  63; 6HR PCP:  0.02;

ALBUQUERQUE NM FAIR      66  26  22 NW12      30.09S
6HR MIN TEMP:  66; 6HR MAX TEMP:  79;

SALT LAKE CITY MOCLDY    63  44  50 S3        30.16S
6HR MIN TEMP:  62; 6HR MAX TEMP:  75;

LOS ANGELES CA MOCLDY    60  57  89 W7        29.97R
6HR MIN TEMP:  59; 6HR M



USA.gov is the U.S. government's official web portal to all federal, state and local government web resources and services.